PST,Max TemperatureF,Mean TemperatureF,Min TemperatureF,Max Dew PointF,MeanDew PointF,Min DewpointF,Max Humidity, Mean Humidity, Min Humidity, Max Sea Level PressureIn, Mean Sea Level PressureIn, Min Sea Level PressureIn, Max VisibilityMiles, Mean VisibilityMiles, Min VisibilityMiles, Max Wind SpeedMPH, Mean Wind SpeedMPH, Max Gust SpeedMPH,PrecipitationIn, CloudCover, Events, WindDirDegrees
2013-12-1,68,51,34,45,40,34,100,70,39,30.32,30.25,30.19,10,8,2,8,1,23,0.00,0,,195
2013-12-2,64,47,30,53,40,30,100,78,56,30.20,30.10,29.92,10,6,0,17,6,21,0.00,1,Fog,252
2013-12-3,56,43,29,52,34,20,100,66,32,29.92,29.87,29.83,10,10,10,26,9,31,0.00,4,,276
2013-12-4,53,39,24,22,15,6,75,46,16,30.07,30.01,29.93,10,10,10,17,6,21,0.00,0,,33
2013-12-5,49,33,16,23,16,11,75,49,23,30.15,30.11,30.07,10,10,9,8,2,12,0.00,0,,206
2013-12-6,48,34,20,46,34,20,93,71,49,30.18,30.04,29.88,10,8,2,21,6,25,0.47,5,Rain,125
2013-12-7,48,38,28,43,29,20,100,66,31,30.25,30.07,29.89,10,10,10,23,10,40,0.00,0,,299
2013-12-8,45,34,23,29,22,17,85,63,41,30.31,30.26,30.22,10,10,10,9,3,16,0.00,0,,168
2013-12-9,49,34,19,24,19,15,84,55,26,30.42,30.36,30.30,10,10,10,17,5,22,0.00,0,,79
2013-12-10,53,37,21,30,24,18,88,60,32,30.40,30.28,30.20,10,10,10,13,4,15,0.00,0,,51
2013-12-11,56,41,25,31,27,23,92,64,35,30.24,30.20,30.16,10,10,10,18,7,23,0.00,0,,77
2013-12-12,58,42,26,37,30,24,92,66,40,30.26,30.20,30.15,10,10,9,13,3,18,0.00,0,,114
2013-12-13,56,40,24,36,30,25,100,72,43,30.33,30.26,30.22,10,9,2,6,1,10,0.00,0,,274
2013-12-14,60,43,25,37,32,25,100,70,40,30.39,30.33,30.29,10,9,6,18,5,22,0.00,0,,54
2013-12-15,62,45,28,38,32,27,92,64,36,30.36,30.30,30.23,10,8,2,14,5,25,0.00,0,,44
2013-12-16,64,49,34,37,35,32,92,63,34,30.23,30.16,30.11,10,10,9,28,9,45,0.00,0,,66
2013-12-17,64,50,35,39,36,32,92,66,39,30.17,30.09,30.02,10,8,5,15,6,28,0.00,0,,61
2013-12-18,59,46,33,46,39,31,100,76,51,30.01,29.90,29.78,10,9,2,16,5,20,0.00,0,,201
2013-12-19,63,47,30,39,29,9,100,60,20,29.91,29.83,29.76,10,7,0,22,7,30,0.00,0,Fog,19
2013-12-20,59,44,29,32,23,10,70,45,19,30.00,29.95,29.91,10,10,2,12,3,14,0.00,0,,173
2013-12-21,63,47,31,43,37,28,100,76,51,30.07,30.00,29.95,10,10,10,12,2,,0.00,0,,355
2013-12-22,63,47,31,41,35,32,100,68,36,30.27,30.19,30.08,10,9,5,14,3,24,0.00,0,,91
2013-12-23,64,48,32,40,37,33,100,70,39,30.38,30.33,30.27,10,8,6,15,5,30,0.00,0,,50
2013-12-24,65,49,33,42,37,32,100,72,43,30.32,30.25,30.18,10,8,5,10,3,39,0.00,0,,279
2013-12-25,65,48,30,41,35,30,100,67,34,30.28,30.23,30.19,10,10,8,18,7,22,0.00,0,,47
2013-12-26,67,48,28,38,33,29,100,63,26,30.24,30.20,30.14,10,10,10,17,6,21,0.00,0,,52
2013-12-27,61,46,30,37,33,28,92,64,36,30.22,30.17,30.11,10,10,10,14,3,17,0.00,0,,79
2013-12-28,62,43,24,36,31,25,100,66,32,30.14,30.07,30.01,10,10,10,9,3,13,0.00,0,,178
2013-12-29,64,46,28,35,29,23,82,53,23,30.17,30.11,30.07,10,10,8,20,6,25,0.00,0,,92
2013-12-30,63,45,27,35,31,25,89,62,34,30.24,30.20,30.17,10,10,7,13,4,21,0.00,0,,61
2013-12-31,59,45,30,39,32,29,100,69,37,30.25,30.19,30.14,10,9,6,6,1,8,0.00,0,,283